Weather History for Poplar Bluff, MO

Change the Weather History Date:

Tuesday, November 6, 2012

  Actual Average Record
Temperature  
Mean Temperature 48 °F -  
Max Temperature 53 °F 58 °F 80 °F (1978)
Min Temperature 44 °F 35 °F 22 °F (1967)
Degree Days  
Heating Degree Days 16    
Moisture  
Dew Point 41 °F    
Average Humidity 78    
Maximum Humidity 90    
Minimum Humidity 62    
Precipitation  
Precipitation 0.00 in - - ()
Sea Level Pressure  
Sea Level Pressure 30.03 in    
Wind  
Wind Speed 5 mph (WNW)    
Max Wind Speed 13 mph    
Max Gust Speed 16 mph    
Visibility 8 miles    
Events Rain    
Averages and records for this station are not official NWS values.
T = Trace of Precipitation, MM = Missing Value Source: NWS Daily Summary

Daily Weather History Graph

Daily Weather History Graph

Search for Another Location

Airport:

Trip Planner

Search our weather history database for the weather conditions in past years. The results will help you decide how hot, cold, wet, or windy it might be!

Date:

Astronomy

Nov. 06, 2012 Rise Set
Actual Time 6:30 AM CST 4:58 PM CST
Civil Twilight 6:03 AM CST 5:25 PM CST
Nautical Twilight 5:32 AM CST 5:56 PM CST
Astronomical Twilight 5:02 AM CST 6:27 PM CST
Moon 11:36 PM CST (11/6) 12:24 PM CST (11/6)
Length of Visible Light 11h 22m
Length of Day
10h 28m
Waning Gibbous, 53% of the Moon is Illuminated
Nov 6
Waning Gibbous
Nov 6
Last Quarter
Nov 13
New
Nov 20
First Quarter
Nov 28
Full

Hourly Weather History & Observations

Time (CST) Temp. Windchill Dew Point Humidity Pressure Visibility Wind Dir Wind Speed Gust Speed Precip Events Conditions
12:05 AM 44.6 °F 41.4 °F 41.0 °F 87% 30.04 in 5.0 mi NE 5.8 mph - N/A   Overcast
12:14 AM 44.6 °F 41.4 °F 41.0 °F 87% 30.05 in 5.0 mi NE 5.8 mph - N/A   Overcast
12:44 AM 44.6 °F 42.2 °F 41.0 °F 87% 30.05 in 5.0 mi North 4.6 mph - N/A   Overcast
12:53 AM 45.0 °F 41.8 °F 42.1 °F 90% 30.06 in 4.0 mi North 5.8 mph - N/A   Overcast
1:29 AM 44.6 °F 42.2 °F 41.0 °F 87% 30.06 in 5.0 mi NNE 4.6 mph - N/A   Overcast
1:53 AM 44.1 °F 41.5 °F 41.0 °F 89% 30.07 in 5.0 mi North 4.6 mph - N/A   Overcast
2:53 AM 44.1 °F 41.5 °F 41.0 °F 89% 30.06 in 5.0 mi NNE 4.6 mph - N/A   Overcast
3:53 AM 44.1 °F 42.5 °F 39.9 °F 85% 30.05 in 5.0 mi NNE 3.5 mph - N/A   Overcast
4:53 AM 44.1 °F 41.5 °F 39.9 °F 85% 30.07 in 5.0 mi NW 4.6 mph - N/A   Overcast
5:53 AM 44.1 °F 42.5 °F 41.0 °F 89% 30.07 in 4.0 mi North 3.5 mph - N/A   Overcast
6:53 AM 44.1 °F - 41.0 °F 89% 30.07 in 3.0 mi Calm Calm - N/A   Overcast
7:27 AM 44.6 °F - 39.2 °F 81% 30.06 in 4.0 mi Calm Calm - N/A   Overcast
7:53 AM 45.0 °F - 41.0 °F 86% 30.07 in 4.0 mi Calm Calm - N/A   Overcast
8:20 AM 46.4 °F 45.2 °F 41.0 °F 81% 30.07 in 4.0 mi North 3.5 mph - N/A   Haze
8:53 AM 46.0 °F 44.8 °F 41.0 °F 83% 30.08 in 5.0 mi NW 3.5 mph - N/A   Haze
9:53 AM 48.0 °F - 41.0 °F 77% 30.08 in 8.0 mi WSW 3.5 mph - N/A   Overcast
10:53 AM 50.0 °F - 42.1 °F 74% 30.07 in 10.0 mi Variable 5.8 mph - N/A   Mostly Cloudy
11:22 AM 51.8 °F - 41.0 °F 67% 30.05 in 10.0 mi WSW 6.9 mph - N/A   Overcast
11:31 AM 51.8 °F - 39.2 °F 62% 30.04 in 10.0 mi Calm Calm - N/A   Overcast
11:48 AM 51.8 °F - 41.0 °F 67% 30.03 in 10.0 mi SW 5.8 mph - N/A   Overcast
11:53 AM 52.0 °F - 41.0 °F 66% 30.04 in 10.0 mi SW 5.8 mph - N/A   Overcast
12:53 PM 52.0 °F - 39.9 °F 63% 30.01 in 10.0 mi SW 4.6 mph - N/A   Overcast
1:51 PM 53.6 °F - 41.0 °F 62% 29.97 in 10.0 mi SSW 9.2 mph - N/A   Overcast
1:53 PM 53.1 °F - 41.0 °F 64% 29.98 in 10.0 mi SW 8.1 mph - N/A   Overcast
2:11 PM 51.8 °F - 41.0 °F 67% 29.97 in 10.0 mi West 11.5 mph 16.1 mph 0.00 in Rain Light Rain
2:53 PM 51.1 °F - 41.0 °F 68% 29.97 in 10.0 mi West 12.7 mph - 0.00 in Rain Light Rain
3:53 PM 52.0 °F - 41.0 °F 66% 29.96 in 10.0 mi WSW 8.1 mph - 0.00 in   Overcast
4:50 PM 51.8 °F - 41.0 °F 67% 29.96 in 10.0 mi Calm Calm - N/A   Overcast
4:53 PM 51.1 °F - 42.1 °F 71% 29.96 in 10.0 mi Calm Calm - N/A   Overcast
5:53 PM 51.1 °F - 42.1 °F 71% 30.00 in 10.0 mi West 3.5 mph - N/A   Overcast
6:53 PM 48.9 °F - 41.0 °F 74% 30.00 in 10.0 mi WNW 3.5 mph - N/A   Partly Cloudy
7:53 PM 45.0 °F - 41.0 °F 86% 30.00 in 10.0 mi Calm Calm - N/A   Mostly Cloudy
8:53 PM 44.1 °F 41.5 °F 41.0 °F 89% 30.01 in 10.0 mi SW 4.6 mph - N/A   Partly Cloudy
9:53 PM 46.9 °F - 42.1 °F 83% 29.99 in 9.0 mi WSW 4.6 mph - N/A   Overcast
10:53 PM 46.0 °F 44.8 °F 42.1 °F 86% 29.98 in 9.0 mi West 3.5 mph - N/A   Overcast
11:53 PM 46.9 °F - 42.1 °F 83% 29.97 in 9.0 mi WSW 4.6 mph - N/A   Overcast